Location: Campestrin
(46.4667°N, 11.7167°E)
Time: 10:33:22
(UTC+00:00)

ARIANE 5 R/B - Pass Details

Date: 18 April 2021
Orbit: 620 x 656 km, 98.1° (Epoch: 02 May)

Event Time Altitude Azimuth Distance (km) Brightness Sun altitude
Exits shadow 20:09:19 44° 119° (ESE) 884 2.9 -19.4°
Maximum altitude 20:10:20 56° 72° (ENE) 764 2.8 -19.5°
Drops below altitude 10° 20:14:39 10° 355° (N) 2,024 5.9 -20.0°
Sets 20:16:52 0° 351° (N) 2,931 6.9 -20.3°
